Weather in Syra

Russia / Perm Krai     56°57′54″N   57°34′03″E
temp.,
°C
wind,
m/s
gust,
m/s
humid.,
%
clouds,
%
prec.,
mm/h
press.,
hPa
HPBL,
m
21 january, thu
thu2123:00−23sw5995100 0.1 1014311
02:00−23sw51095100 0.1 1014262
05:00−23sw51095100 0.1 1015270
08:00−22wsw51095100 0.1 1014272
11:00−21wsw5995100 0.2 1015301
14:00−19wsw51093100 0.1 1014363
17:00−18sw51093100 0.1 1014396
20:00−18sw51193100 0.1 1014383
22 january, fri
fri2223:00−18wsw41094100 0.1 1014275
02:00−18sw3895100 0.1 1013231
05:00−17sw3696100 0.3 1014178
08:00−17sw2497100 0.4 1014118
11:00−16ssw1295100 0.5 1015138
14:00−15se2292100 0.1 1017257
17:00−16ene3597100 0.3 1019120
20:00−22ene4896100 0.1 1023246
23 january, sat
sat2323:00−27e479492 0.1 1026136
02:00−29e479380 0.0 1029117
05:00−30ese469376 0.0 1031106
08:00−31ese349376 0.0 103367
11:00−27se489288 0.0 1033218
14:00−23se4794100 0.0 1032232
17:00−22se4794100 0.0 1030211
20:00−20se5898100 0.1 1029230
24 january, sun
sun2423:00−18sse5897100 1.1 1027291
02:00−16se4796100 0.9 1027298
05:00−15se4796100 1.5 1026264
08:00−15se4796100 0.6 1027256
11:00−14ese5994100 0.9 1028351
14:00−13se6995100 0.5 1027394
17:00−13se6995100 1.4 1027327
20:00−14se5895100 0.6 1027256
25 january, mon
mon2523:00−13se4695100 1.4 1026174
02:00−11se2296100 0.8 102678
05:00−5ese1198100 1.9 102559
08:00−5ne2298100 1.1 102660
11:00−2se1198100 2.1 102736
14:00+1wsw59100100 1.3 1027331
17:00−1sw51094100 1.6 1028290
20:00−1sw61095100 0.3 1028296